User: anonymous   Login
Location: Fort Wayne
(41.1310°N, 85.1290°W)
Time: 07:53:19
(UTC-05:00)
Language:

Cosmos 2056 Rocket - Orbit

View from above orbital plane
View from above orbital plane
View from above satellite
View from above satellite

Ground track
Ground track

The orbit data is extracted from the following two-line orbital elements,

1 20433U 90004B   17018.47324775  .00000051  00000-0  26368-4 0  9996
2 20433  74.0362 270.9998 0039809  76.5549 319.3113 14.35968685413717
Epoch (UTC): 18 January 2017 11:21:28
Eccentricity: 0.0039809
inclination: 74.0362°
perigee height: 743 km
apogee height: 800 km
right ascension of ascending node: 270.9998°
argument of perigee: 76.5549°
revolutions per day: 14.35968685
mean anomaly at epoch: 319.3113°
orbit number at epoch: 41371

The dashed part of the orbit path shows where the satellite is in the earth's shadow,  

DLR